Location: Madrid
(40.4000°N, 3.6830°W)
Time: 09:21:59
(UTC+02:00)

ISS - Visible Passes

Search period start: 19 October 2019 00:00
Search period end: 28 October 2019 23:00
Orbit: 411 x 421 km, 51.6° (Epoch: 19 October)

Date Brightness Start Highest point End Pass type
(mag) Time Alt. Az. Time Alt. Az. Time Alt. Az.
23 Oct -1.0 07:34:19 10° S 07:36:51 20° SE 07:39:23 10° E visible
24 Oct -0.6 06:47:20 10° SSE 06:48:28 11° SE 06:49:36 10° ESE visible
25 Oct -3.2 07:32:53 10° SW 07:36:11 58° SE 07:39:29 10° ENE visible
26 Oct -2.2 06:46:49 27° SSE 06:47:40 32° SE 06:50:42 10° ENE visible
27 Oct -0.5 05:00:51 13° E 05:00:51 13° E 05:01:36 10° E visible
27 Oct -3.5 06:33:48 22° W 06:35:40 50° NNW 06:38:58 10° NE visible
28 Oct -3.3 05:47:38 57° NE 05:47:38 57° NE 05:50:24 10° NE visible
